Change the Weather History Date:

Saturday, September 21, 2013

  Actual Average Record
Temperature  
Mean Temperature 68 °F 67 °F  
Max Temperature 80 °F 76 °F 97 °F (1895)
Min Temperature 56 °F 58 °F 38 °F (1956)
Degree Days  
Heating Degree Days 0 2  
Month to date heating degree days 20 11  
Since 1 July heating degree days 20 12  
Cooling Degree Days 3 4  
Month to date cooling degree days 128 137  
Year to date cooling degree days 1344 1254  
Growing Degree Days 18 (Base 50)    
Moisture  
Dew Point 60 °F    
Average Humidity 70    
Maximum Humidity 97    
Minimum Humidity 42    
Precipitation  
Precipitation 1.05 in 0.13 in 2.44 in (1983)
Month to date precipitation 3.19 2.59  
Year to date precipitation 45.43 30.61  
Snow  
Snow 0.00 in 0.00 in 0.00 in (1870)
Month to date snowfall 0.0 0.0  
Since 1 July snowfall 0.0 0.0  
Since 1 September snowfall 0.0 0.0  
Snow Depth 0.00 in    
Sea Level Pressure  
Sea Level Pressure 29.85 in    
Wind  
Wind Speed 8 mph (South)    
Max Wind Speed 21 mph    
Max Gust Speed 24 mph    
Visibility 6 miles    
Events Fog , Rain    
T = Trace of Precipitation, MM = Missing Value Source: NWS Daily Summary

Daily Weather History Graph

Daily Weather History Graph

Search for Another Location

Airport or City:

Trip Planner

Search our weather history database for the weather conditions in past years. The results will help you decide how hot, cold, wet, or windy it might be!

Date:

Astronomy

Sep. 21, 2013 Rise Set
Actual Time 6:47 AM EDT 6:59 PM EDT
Civil Twilight 6:20 AM EDT 7:26 PM EDT
Nautical Twilight 5:49 AM EDT 7:57 PM EDT
Astronomical Twilight 5:16 AM EDT 8:29 PM EDT
Moon 8:08 PM EDT (9/21) 9:03 AM EDT (9/21)
Length of Visible Light 13h 05m
Length of Day
12h 11m
Waning Gibbous, 94% of the Moon is Illuminated
Sep 21
Waning Gibbous
Sep 26
Last Quarter
Oct 4
New
Oct 11
First Quarter
Oct 18
Full

Hourly Weather History & Observations

Time (EDT) Temp. Dew Point Humidity Pressure Visibility Wind Dir Wind Speed Gust Speed Precip Events Conditions
12:54 AM 62.1 °F 55.9 °F 80% 30.02 in 10.0 mi South 3.5 mph - N/A   Mostly Cloudy
1:54 AM 61.0 °F 55.9 °F 83% 30.01 in 10.0 mi Calm Calm - N/A   Mostly Cloudy
2:54 AM 61.0 °F 55.0 °F 81% 29.99 in 10.0 mi SW 4.6 mph - N/A   Mostly Cloudy
3:54 AM 60.1 °F 55.0 °F 83% 29.98 in 10.0 mi Calm Calm - N/A   Mostly Cloudy
4:54 AM 59.0 °F 55.0 °F 87% 29.97 in 10.0 mi Calm Calm - N/A   Mostly Cloudy
5:54 AM 57.9 °F 55.0 °F 90% 29.97 in 10.0 mi SE 6.9 mph - N/A   Mostly Cloudy
6:31 AM 57.2 °F 55.4 °F 94% 29.97 in 9.0 mi ESE 3.5 mph - N/A   Scattered Clouds
6:54 AM 57.0 °F 54.0 °F 89% 29.97 in 8.0 mi SSE 3.5 mph - N/A   Scattered Clouds
7:06 AM 57.2 °F 55.4 °F 94% 29.98 in 8.0 mi Calm Calm - N/A   Mostly Cloudy
7:27 AM 59.0 °F 55.4 °F 88% 29.96 in 8.0 mi Calm Calm - N/A   Mostly Cloudy
7:36 AM 59.0 °F 55.4 °F 88% 29.96 in 4.0 mi Calm Calm - N/A   Mostly Cloudy
7:43 AM 59.0 °F 55.4 °F 88% 29.96 in 2.0 mi Calm Calm - N/A   Mostly Cloudy
7:54 AM 59.0 °F 57.0 °F 93% 29.96 in 2.0 mi SE 3.5 mph - N/A   Mostly Cloudy
8:03 AM 59.0 °F 57.2 °F 94% 29.95 in 0.5 mi SE 3.5 mph - N/A Fog Fog
8:13 AM 59.0 °F 57.2 °F 94% 29.95 in 0.2 mi Calm Calm - N/A Fog Fog
8:18 AM 59.0 °F 57.2 °F 94% 29.95 in 0.2 mi ESE 3.5 mph - N/A Fog Fog
8:37 AM 60.8 °F 57.2 °F 88% 29.93 in 0.2 mi SE 3.5 mph - N/A Fog Fog
8:54 AM 61.0 °F 59.0 °F 93% 29.93 in 0.2 mi ESE 3.5 mph - N/A Fog Fog
9:03 AM 60.8 °F 59.0 °F 94% 29.92 in 0.5 mi East 3.5 mph - N/A Fog Fog
9:10 AM 62.6 °F 60.8 °F 94% 29.93 in 0.5 mi ESE 3.5 mph - N/A Fog Fog
9:15 AM 60.8 °F 60.8 °F 100% 29.92 in 1.0 mi Calm Calm - N/A   Mostly Cloudy
9:20 AM 62.6 °F 60.8 °F 94% 29.92 in 2.0 mi Calm Calm - N/A   Mostly Cloudy
9:23 AM 62.6 °F 60.8 °F 94% 29.92 in 5.0 mi Calm Calm - N/A   Mostly Cloudy
9:29 AM 62.6 °F 60.8 °F 94% 29.92 in 7.0 mi Calm Calm - N/A   Mostly Cloudy
9:42 AM 64.4 °F 60.8 °F 88% 29.92 in 10.0 mi Calm Calm - N/A   Mostly Cloudy
9:54 AM 66.9 °F 61.0 °F 81% 29.92 in 10.0 mi WSW 3.5 mph - N/A   Mostly Cloudy
10:54 AM 73.9 °F 55.9 °F 53% 29.89 in 10.0 mi Variable 6.9 mph - N/A   Scattered Clouds
11:54 AM 75.9 °F 54.0 °F 46% 29.87 in 10.0 mi South 12.7 mph - N/A   Scattered Clouds
12:54 PM 78.1 °F 54.0 °F 43% 29.84 in 10.0 mi South 8.1 mph 23.0 mph N/A   Scattered Clouds
1:54 PM 79.0 °F 54.0 °F 42% 29.81 in 10.0 mi South 16.1 mph - N/A   Mostly Cloudy
2:54 PM 79.0 °F 55.9 °F 45% 29.79 in 10.0 mi South 15.0 mph - N/A   Mostly Cloudy
3:54 PM 79.0 °F 57.0 °F 47% 29.76 in 10.0 mi South 13.8 mph 20.7 mph N/A   Mostly Cloudy
4:54 PM 77.0 °F 57.0 °F 50% 29.75 in 10.0 mi South 13.8 mph - N/A   Overcast
5:54 PM 75.0 °F 61.0 °F 62% 29.74 in 10.0 mi South 13.8 mph - N/A   Overcast
6:54 PM 73.9 °F 63.0 °F 68% 29.72 in 10.0 mi South 11.5 mph - N/A   Overcast
7:50 PM 73.4 °F 64.4 °F 73% 29.72 in 4.0 mi SSW 9.2 mph - 0.00 in Rain Light Rain
7:54 PM 73.0 °F 64.9 °F 76% 29.72 in 4.0 mi SSW 8.1 mph - 0.00 in Rain Light Rain
8:01 PM 73.4 °F 66.2 °F 78% 29.72 in 7.0 mi South 8.1 mph - 0.01 in Rain Light Rain
8:32 PM 71.6 °F 66.2 °F 83% 29.71 in 5.0 mi South 6.9 mph - 0.02 in Rain Light Rain
8:54 PM 71.1 °F 66.0 °F 84% 29.70 in 6.0 mi SSE 6.9 mph - 0.03 in Rain Light Rain
8:59 PM 71.6 °F 66.2 °F 83% 29.70 in 3.0 mi South 8.1 mph - 0.01 in Rain Light Rain
9:11 PM 71.6 °F 66.2 °F 83% 29.70 in 2.5 mi South 9.2 mph 19.6 mph 0.08 in Rain Heavy Rain
9:18 PM 71.6 °F 66.2 °F 83% 29.71 in 1.5 mi South 12.7 mph - 0.13 in Rain Heavy Rain
9:26 PM 69.8 °F 66.2 °F 88% 29.72 in 3.0 mi SW 17.3 mph 24.2 mph 0.26 in Rain Heavy Rain
9:47 PM 69.8 °F 66.2 °F 88% 29.72 in 5.0 mi WSW 11.5 mph - 0.38 in Rain Rain
9:54 PM 70.0 °F 66.0 °F 87% 29.71 in 6.0 mi WSW 9.2 mph - 0.39 in Rain Rain
10:33 PM 69.8 °F 66.2 °F 88% 29.71 in 5.0 mi SW 10.4 mph - 0.06 in Rain Rain
10:54 PM 69.1 °F 66.0 °F 90% 29.70 in 5.0 mi WSW 10.4 mph - 0.09 in Rain Rain
11:43 PM 66.2 °F 62.6 °F 88% 29.69 in 4.0 mi WNW 9.2 mph - 0.11 in Rain Heavy Rain
11:54 PM 66.9 °F 63.0 °F 87% 29.70 in 3.0 mi NW 6.9 mph - 0.14 in Rain Rain